Waarnemingen

Advertentie
Mijn weer
Twenthe, Nederland (6290): temperatuur & dauwpunt: 15.07.2017 06:00:00 - 21.07.2017 06:00:00 (CEST)Twenthe, Nederland (6290): temperatuur 5cm: 15.07.2017 06:00:00 - 21.07.2017 06:00:00 (CEST)Twenthe, Nederland (6290): windsnelheid & windstoten: 15.07.2017 06:00:00 - 21.07.2017 06:00:00 (CEST)Twenthe, Nederland (6290): windrichting: 15.07.2017 06:00:00 - 21.07.2017 06:00:00 (CEST)Twenthe, Nederland (6290): luchtdruk: 15.07.2017 06:00:00 - 21.07.2017 06:00:00 (CEST)Twenthe, Nederland (6290): zicht: 15.07.2017 06:00:00 - 21.07.2017 06:00:00 (CEST)Twenthe, Nederland (6290): neerslag: 15.07.2017 06:00:00 - 21.07.2017 06:00:00 (CEST)
Datum & Tijd tt [°C] td [°C] tt 5cm [°C] ff [km/u] ff [kn] fx [km/u] fx [kn] dd ppp [hPa] vv [km] rr [mm]
21.07.2017 06:00:00 11,7 11,5 7,5 7 4 7 4 Z 1014,2 9 0,0
21.07.2017 05:00:00 12,0 11,8 8,4 4 2 - - ZZW 1013,9 3,1 0,0
21.07.2017 04:00:00 13,7 12,7 11,5 4 2 7 4 Z 1013,7 29 0,0
21.07.2017 03:00:00 14,7 12,8 13,8 7 4 14 8 WZW 1013,5 30 0,0
21.07.2017 02:00:00 13,8 12,3 11,2 7 4 - - ZW 1013,4 30 0,0
21.07.2017 01:00:00 15,4 13,0 13,5 11 6 18 10 WZW 1013,1 30 0,0
21.07.2017 00:00:00 17,0 14,1 15,5 7 4 22 12 W 1012,7 36 0,0
20.07.2017 23:00:00 18,0 14,0 17,5 11 6 - - WZW 1012,2 44 0,0
20.07.2017 22:00:00 18,5 14,4 17,8 14 8 36 19 WZW 1011,5 40 0,0
20.07.2017 21:00:00 19,3 14,0 19,0 25 14 50 27 WZW 1010,4 49 0,0
20.07.2017 20:00:00 23,3 14,9 23,0 11 6 - - ZW 1008,6 48 0,0
20.07.2017 19:00:00 23,6 14,3 23,4 14 8 36 19 ZW 1007,9 44 0,0
20.07.2017 18:00:00 24,3 14,7 24,2 18 10 40 21 ZW 1007,7 39 0,0
20.07.2017 17:00:00 25,3 15,0 25,9 25 14 - - ZZW 1007,7 32 0,0
20.07.2017 16:00:00 25,3 17,0 25,4 22 12 36 19 ZZW 1007,5 34 0,0
20.07.2017 15:00:00 24,9 19,0 26,6 14 8 36 19 ZZW 1007,4 28 0,0
20.07.2017 14:00:00 23,5 18,9 24,7 18 10 - - ZZW 1007,6 16 0,0
20.07.2017 13:00:00 22,3 19,1 23,2 14 8 25 14 ZZW 1007,8 10 0,0
20.07.2017 12:00:00 22,0 19,6 22,2 11 6 18 10 Z 1008,0 11 0,0
20.07.2017 11:00:00 19,6 18,9 19,8 11 6 - - Z 1008,0 8 0,1
20.07.2017 10:00:00 18,4 17,9 18,2 7 4 32 18 Z 1007,7 9 4,0
20.07.2017 09:00:00 18,8 17,7 18,5 7 4 18 10 ZZO 1007,9 14 0,6
20.07.2017 08:00:00 18,4 17,6 18,2 7 4 - - ZO 1008,0 7 2,0
20.07.2017 07:00:00 18,6 18,2 18,4 4 2 14 8 ZZO 1007,2 4,9 0,0
20.07.2017 06:00:00 18,6 18,1 18,3 7 4 25 14 OZO 1007,7 5 1,0
20.07.2017 05:00:00 17,9 17,4 17,6 0 0 - - N 1006,8 8 0,2
20.07.2017 04:00:00 18,3 17,8 17,9 4 2 11 6 ZO 1007,7 11 0,0
20.07.2017 03:00:00 18,1 17,6 17,7 7 4 11 6 O 1008,1 7 0,1
20.07.2017 02:00:00 18,4 17,9 18,1 4 2 - - NW 1008,6 9 0,0
20.07.2017 01:00:00 18,9 17,4 18,5 7 4 14 8 O 1008,4 20 0,5
20.07.2017 00:00:00 19,2 16,5 17,3 11 6 14 8 ZZO 1009,2 44 0,0
19.07.2017 23:00:00 18,6 16,2 15,5 7 4 - - ZO 1008,6 40 0,0
19.07.2017 22:00:00 20,9 16,1 19,1 7 4 14 8 ZO 1008,6 44 0,0
19.07.2017 21:00:00 22,8 16,2 22,1 11 6 22 12 ZO 1008,7 37 0,0
19.07.2017 20:00:00 24,7 15,3 24,5 11 6 - - ZZO 1008,2 31 0,0
19.07.2017 19:00:00 25,7 14,9 24,8 18 10 29 16 Z 1008,6 30 0,0
19.07.2017 18:00:00 26,6 19,9 27,2 18 10 50 27 ZZW 1008,4 22 1,4
19.07.2017 17:00:00 26,9 18,4 26,7 29 16 - - WZW 1008,1 30 0,0
19.07.2017 16:00:00 31,9 18,6 31,1 11 6 25 14 Z 1007,7 33 0,0
19.07.2017 15:00:00 30,9 18,6 32,0 18 10 29 16 ZO 1008,5 36 0,0
19.07.2017 14:00:00 29,6 17,7 31,2 18 10 - - ZO 1009,0 37 0,0
19.07.2017 13:00:00 29,0 17,9 30,1 22 12 36 19 OZO 1009,2 36 0,0
19.07.2017 12:00:00 27,7 17,8 29,4 18 10 29 16 O 1009,9 36 0,0
19.07.2017 11:00:00 26,0 17,5 27,3 14 8 25 14 O 1010,5 29 0,0
19.07.2017 10:00:00 23,9 16,1 24,7 14 8 32 18 O 1011,0 30 0,0
19.07.2017 09:00:00 21,5 15,2 21,7 18 10 32 18 O 1011,2 37 0,0
19.07.2017 08:00:00 19,3 14,1 19,3 18 10 - - O 1011,9 31 0,0
19.07.2017 07:00:00 17,9 13,6 17,4 11 6 25 14 O 1012,5 38 0,0
19.07.2017 06:00:00 16,8 13,3 16,0 11 6 22 12 ONO 1012,6 44 0,0
19.07.2017 05:00:00 17,0 13,2 15,7 11 6 - - ONO 1012,9 41 0,0
19.07.2017 04:00:00 17,0 13,2 16,0 11 6 22 12 NO 1013,6 43 0,0
19.07.2017 03:00:00 17,8 13,3 16,5 14 8 22 12 O 1014,0 42 0,0
19.07.2017 02:00:00 17,5 13,3 16,5 14 8 - - ONO 1014,8 41 0,0
19.07.2017 01:00:00 18,1 13,3 16,8 11 6 22 12 ONO 1015,3 47 0,0
19.07.2017 00:00:00 18,8 13,5 17,5 14 8 22 12 ONO 1015,7 45 0,0
18.07.2017 23:00:00 19,0 13,6 17,0 11 6 - - NO 1016,1 47 0,0
18.07.2017 22:00:00 19,8 13,6 18,3 11 6 18 10 NO 1016,4 47 0,0
18.07.2017 21:00:00 22,0 13,9 21,1 11 6 22 12 NO 1016,7 45 0,0
18.07.2017 20:00:00 23,2 14,1 22,4 11 6 - - NO 1016,9 47 0,0
18.07.2017 19:00:00 23,8 14,6 23,7 14 8 25 14 ONO 1017,2 40 0,0
18.07.2017 18:00:00 25,1 14,3 26,2 14 8 25 14 NO 1017,5 37 0,0
18.07.2017 17:00:00 24,6 14,4 25,4 14 8 - - NO 1018,1 38 0,0
18.07.2017 16:00:00 25,0 14,3 26,9 11 6 22 12 O 1018,8 38 0,0
18.07.2017 15:00:00 24,4 13,3 27,0 14 8 22 12 O 1019,4 40 0,0
18.07.2017 14:00:00 23,9 13,7 26,3 14 8 - - O 1020,0 34 0,0
18.07.2017 13:00:00 22,8 13,1 25,5 14 8 22 12 NO 1020,7 35 0,0
18.07.2017 12:00:00 22,1 13,4 24,6 11 6 22 12 ONO 1021,3 30 0,0
18.07.2017 11:00:00 20,7 13,2 23,4 11 6 22 12 NO 1021,7 32 0,0
18.07.2017 10:00:00 19,5 13,1 21,6 11 6 22 12 ONO 1021,9 36 0,0
18.07.2017 09:00:00 17,6 11,8 18,4 14 8 22 12 ONO 1022,1 28 0,0
18.07.2017 08:00:00 15,3 11,4 15,8 11 6 18 10 ONO 1022,2 29 0,0
18.07.2017 07:00:00 13,3 11,3 11,8 7 4 14 8 NO 1022,2 24 0,0
18.07.2017 06:00:00 10,7 9,8 8,6 7 4 11 6 NO 1022,3 23 0,0
18.07.2017 05:00:00 10,8 9,8 9,0 7 4 14 8 NO 1022,4 26 0,0
18.07.2017 04:00:00 12,3 10,9 9,0 7 4 11 6 ONO 1022,5 29 0,0
18.07.2017 03:00:00 12,1 10,7 9,0 7 4 7 4 NO 1022,7 32 0,0
18.07.2017 02:00:00 13,0 11,1 10,7 7 4 14 8 NO 1022,8 38 0,0
18.07.2017 01:00:00 14,2 11,6 12,1 11 6 14 8 NO 1022,9 40 0,0
18.07.2017 00:00:00 14,0 11,9 11,6 11 6 18 10 NO 1022,9 42 0,0
17.07.2017 23:00:00 14,2 12,5 9,3 4 2 11 6 N 1022,9 47 0,0
17.07.2017 22:00:00 16,6 13,1 12,3 4 2 11 6 NNW 1022,6 37 0,0
17.07.2017 21:00:00 19,7 12,3 19,0 7 4 14 8 NNW 1022,3 50 0,0
17.07.2017 20:00:00 21,3 12,3 21,6 11 6 14 8 NW 1022,3 42 0,0
17.07.2017 19:00:00 22,0 11,9 23,2 11 6 22 12 NNW 1022,2 41 0,0
17.07.2017 18:00:00 22,6 12,2 24,1 11 6 22 12 WNW 1022,4 41 0,0
17.07.2017 17:00:00 22,2 10,8 24,1 7 4 - - NNW 1022,7 35 0,0
17.07.2017 16:00:00 22,0 11,0 24,1 11 6 22 12 NW 1022,8 36 0,0
17.07.2017 15:00:00 21,3 10,6 24,0 11 6 22 12 WNW 1023,1 35 0,0
17.07.2017 14:00:00 20,6 9,8 23,1 11 6 18 10 NW 1023,2 41 0,0
17.07.2017 13:00:00 20,6 10,8 22,7 7 4 18 10 N 1023,3 37 0,0
17.07.2017 12:00:00 19,4 10,6 21,9 7 4 18 10 NNW 1023,3 31 0,0
17.07.2017 11:00:00 18,6 10,7 19,7 7 4 22 12 N 1023,5 36 0,0
17.07.2017 10:00:00 17,6 12,4 18,9 14 8 18 10 N 1023,5 27 0,0
17.07.2017 09:00:00 15,9 12,8 16,9 11 6 18 10 N 1023,2 32 0,0
17.07.2017 08:00:00 15,3 13,0 15,9 7 4 18 10 N 1023,0 26 0,0
17.07.2017 07:00:00 14,5 13,5 14,1 7 4 7 4 N 1022,3 17 0,0
17.07.2017 06:00:00 14,4 14,1 13,8 7 4 14 8 N 1022,0 10 0,0
17.07.2017 05:00:00 15,5 14,9 15,2 7 4 14 8 NW 1021,8 13 0,0
17.07.2017 04:00:00 16,3 15,6 16,2 7 4 14 8 NW 1021,8 12 0,0
17.07.2017 03:00:00 16,8 16,4 16,7 7 4 14 8 NW 1021,7 7 0,1
17.07.2017 02:00:00 16,9 16,6 16,9 4 2 14 8 WNW 1021,8 5 2,0
17.07.2017 01:00:00 17,5 17,2 17,5 7 4 11 6 WNW 1021,8 2,6 0,9
17.07.2017 00:00:00 17,9 17,0 17,7 7 4 11 6 W 1021,9 13 0,0
16.07.2017 23:00:00 18,1 16,9 17,8 11 6 11 6 WZW 1022,0 23 0,0
16.07.2017 22:00:00 18,1 17,3 17,9 7 4 14 8 WZW 1022,0 16 0,0
16.07.2017 21:00:00 19,1 16,8 18,9 11 6 22 12 WNW 1021,8 36 0,0
16.07.2017 20:00:00 19,7 17,2 19,6 14 8 22 12 WNW 1021,5 19 0,0
16.07.2017 19:00:00 20,5 18,2 20,7 11 6 22 12 WNW 1021,5 19 0,0
16.07.2017 18:00:00 20,5 19,0 20,6 7 4 18 10 WZW 1021,4 9 0,9
16.07.2017 17:00:00 19,9 18,6 20,0 7 4 18 10 W 1021,7 4,3 1,5
16.07.2017 16:00:00 21,8 17,9 23,2 11 6 22 12 ZZW 1021,6 10 0,0
16.07.2017 15:00:00 19,5 17,2 19,4 14 8 29 16 ZW 1021,9 7 0,0
16.07.2017 14:00:00 19,1 17,0 19,9 18 10 25 14 ZZW 1021,7 9 0,0
16.07.2017 13:00:00 17,8 17,1 18,0 14 8 25 14 ZZW 1022,0 3,0 0,0
16.07.2017 12:00:00 17,6 15,9 18,2 14 8 25 14 ZZW 1022,1 12 0,0
16.07.2017 11:00:00 17,7 15,0 18,3 14 8 29 16 ZZW 1022,1 14 0,0
16.07.2017 10:00:00 16,9 14,4 17,1 14 8 22 12 ZZW 1022,1 16 0,0
16.07.2017 09:00:00 16,1 14,5 16,2 14 8 25 14 ZZW 1022,0 6 0,0
16.07.2017 08:00:00 16,4 13,3 16,4 14 8 29 16 ZZW 1021,8 25 0,0
16.07.2017 07:00:00 16,4 13,2 16,3 14 8 25 14 ZW 1021,5 29 0,0
16.07.2017 06:00:00 16,3 13,3 15,9 11 6 18 10 ZZW 1021,5 20 0,0
16.07.2017 05:00:00 16,5 13,1 16,1 11 6 18 10 ZW 1021,4 22 0,0
16.07.2017 04:00:00 16,6 13,2 16,3 11 6 18 10 ZW 1021,8 21 0,0
16.07.2017 03:00:00 17,3 12,6 16,7 11 6 18 10 Z 1021,7 30 0,0
16.07.2017 02:00:00 17,6 12,4 16,5 14 8 18 10 Z 1021,7 26 0,0
16.07.2017 01:00:00 16,7 13,0 16,0 7 4 11 6 ZZO 1022,0 25 0,0
16.07.2017 00:00:00 17,1 12,7 16,2 7 4 18 10 Z 1022,2 36 0,0
15.07.2017 23:00:00 17,8 12,3 16,7 11 6 18 10 Z 1022,1 43 0,0
15.07.2017 22:00:00 18,1 12,3 17,1 7 4 11 6 Z 1022,3 40 0,0
15.07.2017 21:00:00 18,3 12,6 17,7 7 4 11 6 Z 1022,2 43 0,0
15.07.2017 20:00:00 18,7 12,4 18,3 7 4 14 8 ZZW 1022,4 45 0,0
15.07.2017 19:00:00 19,5 11,6 19,5 14 8 22 12 ZZW 1022,2 42 0,0
15.07.2017 18:00:00 20,5 10,7 21,1 14 8 18 10 ZW 1022,1 48 0,0
15.07.2017 17:00:00 20,7 10,4 21,3 11 6 22 12 W 1022,2 43 0,0
15.07.2017 16:00:00 20,7 9,6 21,9 11 6 25 14 W 1022,3 42 0,0
15.07.2017 15:00:00 20,9 11,2 20,6 14 8 25 14 WZW 1022,1 44 0,0
15.07.2017 14:00:00 18,9 11,5 19,9 11 6 22 12 W 1022,3 44 0,0
15.07.2017 13:00:00 18,1 12,2 18,6 7 4 14 8 WNW 1022,2 42 0,0
15.07.2017 12:00:00 17,3 12,8 18,7 7 4 22 12 NW 1022,0 33 0,0
15.07.2017 11:00:00 16,8 11,8 17,8 11 6 25 14 W 1021,9 39 0,0
15.07.2017 10:00:00 16,0 12,2 16,4 14 8 22 12 W 1021,9 34 0,0
15.07.2017 09:00:00 16,3 12,8 17,1 11 6 18 10 WNW 1021,1 31 0,0
15.07.2017 08:00:00 14,3 12,8 14,4 11 6 14 8 W 1020,9 29 0,0
15.07.2017 07:00:00 12,8 12,3 12,6 7 4 14 8 ZW 1020,5 17 0,0
15.07.2017 06:00:00 12,8 12,4 12,6 7 4 14 8 WZW 1020,0 18 0,0

tt = temperatuur
td = dauwpunt
tt 5cm = temperatuur 5cm
ff = windsnelheid
fx = windstoten
dd = windrichting
ppp = luchtdruk
vv = zicht
rr = neerslag

Weerstations in de omgeving